Weather History for Nuiqsut, AK

Change the Weather History Date:

Tuesday, May 14, 2013

  Actual Average (PAKU) Record (PAKU)
Temperature  
Mean Temperature 9 °F -  
Max Temperature 12 °F 24 °F 39 °F (2014)
Min Temperature 3 °F 14 °F -7 °F (2000)
Degree Days  
Heating Degree Days 56    
Moisture  
Dew Point 5 °F    
Average Humidity 86    
Maximum Humidity 92    
Minimum Humidity 79    
Precipitation  
Precipitation 0.00 in - - ()
Sea Level Pressure  
Sea Level Pressure 29.68 in    
Wind  
Wind Speed 21 mph (WSW)    
Max Wind Speed 31 mph    
Max Gust Speed 38 mph    
Visibility 5 miles    
Events Fog , Snow    
Averages and records for this station are not official NWS values.
T = Trace of Precipitation, MM = Missing Value Source: NWS Daily Summary

Daily Weather History Graph

Daily Weather History Graph

Search for Another Location

Airport:

Trip Planner

Search our weather history database for the weather conditions in past years. The results will help you decide how hot, cold, wet, or windy it might be!

Date:

Astronomy

May. 14, 2013 Rise Set
Actual Time 2:36 AM AKDT 1:55 AM AKDT
Civil Twilight Sun does not rise Sun does not rise
Nautical Twilight Sun does not rise Sun does not rise
Astronomical Twilight Sun does not rise Sun does not rise
Moon 7:13 AM AKDT (5/14) 3:56 AM AKDT (5/14)
Length of Visible Light 24h 00m
Length of Day
23h 18m
Waxing Crescent, 20% of the Moon is Illuminated
May 14
Waxing Crescent
May 17
First Quarter
May 24
Full
May 31
Last Quarter
Jun 8
New

Hourly Weather History & Observations

Time (AKDT) Temp. Windchill Dew Point Humidity Pressure Visibility Wind Dir Wind Speed Gust Speed Precip Events Conditions
12:26 AM 10.4 °F -11.7 °F 8.6 °F 92% 29.54 in 0.2 mi West 29.9 mph 38.0 mph 0.00 in Fog , Snow Snow
12:53 AM 10.0 °F -11.5 °F 8.1 °F 92% 29.56 in 0.2 mi West 27.6 mph 36.8 mph 0.00 in Fog , Snow Snow
1:08 AM 8.6 °F -14.1 °F 6.8 °F 92% 29.56 in 0.2 mi West 29.9 mph 36.8 mph 0.00 in Fog , Snow Light Snow
1:53 AM 9.0 °F -13.0 °F 7.0 °F 92% 29.59 in 0.2 mi West 27.6 mph 36.8 mph 0.00 in Fog , Snow Light Snow
2:53 AM 7.0 °F -16.7 °F 5.0 °F 92% 29.61 in 0.2 mi West 31.1 mph 36.8 mph 0.00 in Fog , Snow Light Snow
3:53 AM 7.0 °F -15.6 °F 5.0 °F 92% 29.65 in 0.2 mi West 27.6 mph 35.7 mph 0.00 in Fog , Snow Light Snow
4:35 AM 6.8 °F -15.5 °F 3.2 °F 85% 29.65 in 0.5 mi West 26.5 mph - 0.00 in Fog , Snow Light Snow
4:53 AM 7.0 °F -14.0 °F 3.9 °F 87% 29.66 in 0.5 mi West 23.0 mph 32.2 mph 0.00 in Fog , Snow Snow
5:07 AM 6.8 °F -13.8 °F 5.0 °F 92% 29.66 in 0.8 mi West 21.9 mph - 0.00 in Snow Light Snow
5:19 AM 6.8 °F -15.1 °F 3.2 °F 85% 29.66 in 0.5 mi West 25.3 mph - 0.00 in Fog , Snow Light Snow
5:33 AM 6.8 °F -14.7 °F 3.2 °F 85% 29.66 in 1.2 mi West 24.2 mph 29.9 mph 0.00 in Snow Blowing Snow
5:48 AM 6.8 °F -15.1 °F 3.2 °F 85% 29.67 in 0.8 mi West 25.3 mph - 0.00 in Snow Blowing Snow
5:53 AM 6.1 °F -16.5 °F 3.9 °F 91% 29.67 in 0.8 mi West 26.5 mph - 0.00 in Snow Blowing Snow
6:27 AM 6.8 °F -16.2 °F 3.2 °F 85% 29.68 in 1.2 mi West 28.8 mph 32.2 mph 0.00 in Snow Blowing Snow
6:53 AM 7.0 °F -14.0 °F 3.9 °F 87% 29.69 in 1.0 mi West 23.0 mph 31.1 mph 0.00 in Snow Blowing Snow
7:00 AM 6.8 °F -13.8 °F 3.2 °F 85% 29.69 in 2.0 mi West 21.9 mph - N/A Snow Blowing Snow
7:36 AM 6.8 °F -11.8 °F 5.0 °F 92% 29.70 in 5.0 mi West 17.3 mph - N/A Snow Blowing Snow
7:51 AM 6.8 °F -12.4 °F 3.2 °F 85% 29.70 in 9.0 mi WSW 18.4 mph - N/A   Overcast
7:53 AM 7.0 °F -11.6 °F 3.9 °F 87% 29.70 in 9.0 mi West 17.3 mph - N/A   Overcast
8:35 AM 8.6 °F -9.5 °F 3.2 °F 79% 29.70 in 2.0 mi West 17.3 mph - 0.00 in Snow Light Snow
8:51 AM 8.6 °F -8.3 °F 5.0 °F 85% 29.70 in 1.8 mi West 15.0 mph - 0.00 in Snow Light Snow
8:53 AM 8.1 °F -8.4 °F 5.0 °F 87% 29.71 in 1.8 mi West 13.8 mph - 0.00 in Snow Light Snow
8:57 AM 8.6 °F -8.3 °F 5.0 °F 85% 29.71 in 3.0 mi West 15.0 mph - 0.00 in Snow Light Snow
9:53 AM 9.0 °F -8.5 °F 5.0 °F 84% 29.71 in 10.0 mi WSW 16.1 mph - 0.00 in   Overcast
10:09 AM 8.6 °F -9.5 °F 6.8 °F 92% 29.71 in 1.8 mi WSW 17.3 mph - 0.00 in Snow Light Snow
10:19 AM 8.6 °F -8.9 °F 6.8 °F 92% 29.71 in 3.0 mi WSW 16.1 mph - 0.00 in Snow Blowing Snow
10:53 AM 10.0 °F -7.6 °F 6.1 °F 84% 29.71 in 4.0 mi WSW 17.3 mph - 0.00 in Snow Blowing Snow
11:53 AM 10.0 °F -5.9 °F 7.0 °F 87% 29.71 in 10.0 mi WSW 13.8 mph - 0.00 in   Overcast
12:53 PM 10.9 °F -6.5 °F 6.1 °F 81% 29.71 in 9.0 mi WSW 17.3 mph - 0.00 in Snow Light Snow
1:53 PM 10.9 °F -5.9 °F 7.0 °F 84% 29.71 in 10.0 mi WSW 16.1 mph - 0.00 in   Overcast
2:53 PM 12.0 °F -5.1 °F 8.1 °F 84% 29.70 in 5.0 mi WSW 17.3 mph - 0.00 in Snow Light Snow
3:53 PM 12.0 °F -4.5 °F 8.1 °F 84% 29.70 in 10.0 mi WSW 16.1 mph - 0.00 in   Mostly Cloudy
4:53 PM 12.0 °F -2.0 °F 8.1 °F 84% 29.71 in 6.0 mi West 11.5 mph - 0.00 in Snow Light Snow
5:12 PM 12.2 °F -2.5 °F 8.6 °F 85% 29.71 in 2.5 mi WSW 12.7 mph - 0.00 in Snow Light Snow
5:19 PM 12.2 °F -3.1 °F 8.6 °F 85% 29.70 in 5.0 mi West 13.8 mph - 0.00 in Snow Light Snow
5:53 PM 12.0 °F -2.0 °F 7.0 °F 80% 29.71 in 10.0 mi WSW 11.5 mph - 0.00 in   Overcast
6:53 PM 10.9 °F -3.4 °F 6.1 °F 81% 29.71 in 10.0 mi SW 11.5 mph - N/A   Mostly Cloudy
7:05 PM 10.4 °F -3.3 °F 6.8 °F 85% 29.71 in 10.0 mi SW 10.4 mph - N/A   Scattered Clouds
7:51 PM 10.4 °F 0.8 °F 6.8 °F 85% 29.71 in 10.0 mi SSW 5.8 mph - N/A   Mostly Cloudy
7:53 PM 10.0 °F 0.4 °F 6.1 °F 84% 29.72 in 10.0 mi SSW 5.8 mph - N/A   Mostly Cloudy
8:24 PM 10.4 °F -0.4 °F 5.0 °F 79% 29.71 in 10.0 mi SW 6.9 mph - N/A   Scattered Clouds
8:53 PM 9.0 °F 0.6 °F 6.1 °F 88% 29.71 in 10.0 mi SSW 4.6 mph - N/A   Mostly Cloudy
9:09 PM 8.6 °F 0.1 °F 5.0 °F 85% 29.70 in 10.0 mi SSW 4.6 mph - N/A   Scattered Clouds
9:53 PM 7.0 °F -1.7 °F 3.9 °F 87% 29.70 in 10.0 mi South 4.6 mph - N/A   Clear
10:53 PM 6.1 °F -4.3 °F 3.0 °F 87% 29.69 in 10.0 mi SSE 5.8 mph - N/A   Mostly Cloudy
11:53 PM 3.9 °F -6.9 °F 1.0 °F 88% 29.69 in 10.0 mi SE 5.8 mph - N/A   Overcast